Location: Quebec
(46.8000°N, 71.2500°W)
Time: 15:48:51
(UTC-05:00)

Tiangong 2 - Pass Details

Date: 14 October 2017
Orbit: 386 x 390 km, 42.8° (Epoch: 11 December)

Event Time Altitude Azimuth Distance (km) Brightness Sun altitude
Exits shadow 05:01:12 33° 146° (SE) 675 2.4 -21.3°
Drops below altitude 10° 05:03:37 10° 104° (ESE) 1,423 4.9 -20.9°
Sets 05:05:47 0° 96° (E) 2,281 6.3 -20.6°
